Regional Weather Roundup
Issued by NWS

Home | Current Version | Previous Version | Text Only | Print | Product List | Glossary Off
Versions: 1 2 3 4 5 6 7 8 9 10 11 12 13 14 15 16 17 18 19 20 21 22 23 24 25 26 27 28 29 30 31 32 33 34 35 36 37 38 39 40 41 42 43 44 45 46 47 48 49 50

000
ASUS43 KLSX 011407
RWRMO

WEATHER SUMMARY FOR MISSOURI
NATIONAL WEATHER SERVICE SPRINGFIELD MO
900 AM CDT WED OCT 01 2014

NOTE: "FAIR" INDICATES FEW OR NO CLOUDS BELOW 12,000 FEET WITH NO
       SIGNIFICANT WEATHER AND/OR OBSTRUCTIONS TO VISIBILITY.
       CURRENT SKY AND/OR WEATHER CONDITIONS ARE NOT AVAILABLE FOR
       CHILLICOTHE AND FARMINGTON.

MOZ001>031-035>038-043-044-053-054-011500-
...NORTHERN AND WESTERN MISSOURI...

CITY           SKY/WX    TMP DP  RH WIND       PRES   REMARKS
KANSAS CTY INT TSTM      66  65  96 SE9       29.79R FOG
KANSAS C DTWN  PTSUNNY   70  64  81 SE6       29.78S
LEE`S SUMMIT   PTSUNNY   69  62  78 S5        29.80S
ST JOSEPH      PTSUNNY   65  63  93 SE9       29.77S
CHILLICOTHE      N/A     63  61  93 E9        29.83R
KIRKSVILLE     RAIN      61  60  97 E6        29.89S FOG

$$
MOZ066>068-077>081-088>096-101>105-011500-
...SOUTHWEST MISSOURI...

CITY           SKY/WX    TMP DP  RH WIND       PRES   REMARKS
SPRINGFIELD    SUNNY     70  58  65 S15       29.87R
JOPLIN         PTSUNNY   73  63  70 S14G20    29.83R

$$
MOZ032>034-039>042-045>050-055>058-069>072-011500-
...CENTRAL MISSOURI...

CITY           SKY/WX    TMP DP  RH WIND       PRES   REMARKS
COLUMBIA       MOSUNNY   67  57  70 SE10      29.85S
JEFFERSON CITY MOSUNNY   68  56  65 SE7       29.85S
ROLLA          MOSUNNY   69  54  58 S10       29.87F
SEDALIA        CLOUDY    67  61  81 S8        29.82S HAZE
WHITEMAN AFB   LGT RAIN  64  61  88 VRB7      29.80S
OSAGE BEACH    MOSUNNY   70  55  60 S10       29.86S

$$
MOZ051-052-059>065-011500-
...EAST CENTRAL MISSOURI...

CITY           SKY/WX    TMP DP  RH WIND       PRES   REMARKS
ST LOUIS INTL  MOSUNNY   69  60  73 SE12      29.92S
SPIRIT OF STL  SUNNY     67  59  75 SE5       29.90S
ST CHARLES     SUNNY     64  60  87 E8        29.91S FOG

$$
MOZ072>076-082>087-097>100-106>115-011500-
...SOUTH CENTRAL AND SOUTHEAST MISSOURI...

CITY           SKY/WX    TMP DP  RH WIND       PRES   REMARKS
CAPE GIRARDEAU PTSUNNY   67  61  81 CALM      29.94R
FARMINGTON     SUNNY     64  55  72 S7        29.95S
POPLAR BLUFF   PTSUNNY   67  58  72 CALM      29.92R
WEST PLAINS    SUNNY     67  57  70 SE3       29.92S

$$


USA.gov is the U.S. government's official web portal to all federal, state and local government web resources and services.